{"data":{"norad_id":65785,"epoch":"2026-05-25T00:07:52.667616Z","epoch_age_seconds":70610,"freshness":"FRESH","line1":"1 65785U 25217Z   26145.00547069  .00001787  00000+0  28369-3 0  9990","line2":"2 65785  51.8985  43.0278 0000995 174.4515 185.6457 14.76654388 36493","mean_motion":14.76654388,"eccentricity":9.95e-5,"inclination_deg":51.8985,"raan_deg":43.0278,"arg_perigee_deg":174.4515,"mean_anomaly_deg":185.6457,"bstar":0.00028369,"rev_number":3649,"period_min":97.517740894696,"perigee_km":639.20624459525,"apogee_km":640.60283486166,"semimajor_km":7018.0415397285,"source":"CELESTRAK","updated_at":"2026-05-25T13:38:05.690960Z"}}